User: anonymous   Login
Location: Natural Bridges National Monument
(37.6093°N, 109.9767°W)
Time: 19:49:59
(UTC-06:00)
Language:

USA 32 - Orbit

View from above orbital plane
View from above orbital plane
View from above satellite
View from above satellite

Ground track
Ground track

The orbit data is extracted from the following two-line orbital elements,

1 19460U 88078A   16244.11147980 0.00000030  00000-0  10894-4 0    01
2 19460  84.9853  30.3816 0005000  43.4401 316.5598 14.33385302    00
Epoch (UTC): 31 August 2016 02:40:31
Eccentricity: 0.0005000
inclination: 84.9853°
perigee height: 777 km
apogee height: 784 km
right ascension of ascending node: 30.3816°
argument of perigee: 43.4401°
revolutions per day: 14.33385302
mean anomaly at epoch: 316.5598°
orbit number at epoch: 0

The dashed part of the orbit path shows where the satellite is in the earth's shadow,  

DLR